Time,TemperatureF,DewpointF,PressureIn,WindDirection,WindDirectionDegrees,WindSpeedMPH,WindSpeedGustMPH,Humidity,HourlyPrecipIn,Conditions,Clouds,dailyrainin,SoftwareType,DateUTC
2013-03-03 00:00:00,56.4,32.0,29.98,West,272,0.0,-999.0,40,-99.99,,,0.00,weatherlink.com 1.10,2013-03-03 08:00:00,
2013-03-03 00:15:00,55.9,32.0,29.98,West,272,0.0,-999.0,41,-99.99,,,0.00,weatherlink.com 1.10,2013-03-03 08:15:00,
2013-03-03 00:30:00,55.4,34.0,29.98,West,272,0.0,-999.0,44,-99.99,,,0.00,weatherlink.com 1.10,2013-03-03 08:30:00,
2013-03-03 00:45:00,54.5,34.0,29.98,West,272,0.0,-999.0,46,-99.99,,,0.00,weatherlink.com 1.10,2013-03-03 08:45:00,
2013-03-03 01:00:00,53.7,33.0,29.98,West,272,0.0,-999.0,46,-99.99,,,0.00,weatherlink.com 1.10,2013-03-03 09:00:00,
2013-03-03 01:15:00,53.3,34.0,29.98,West,272,0.0,-999.0,48,-99.99,,,0.00,weatherlink.com 1.10,2013-03-03 09:15:00,
2013-03-03 01:30:00,52.6,34.0,29.98,West,272,0.0,-999.0,49,-99.99,,,0.00,weatherlink.com 1.10,2013-03-03 09:30:00,
2013-03-03 01:45:00,52.1,34.0,29.98,West,272,0.0,-999.0,50,-99.99,,,0.00,weatherlink.com 1.10,2013-03-03 09:45:00,
2013-03-03 02:00:00,51.8,34.0,29.98,West,272,0.0,-999.0,50,-99.99,,,0.00,weatherlink.com 1.10,2013-03-03 10:00:00,
2013-03-03 02:31:00,53.1,33.0,29.95,West,276,0.0,-999.0,47,-99.99,,,0.00,weatherlink.com 1.10,2013-03-03 10:31:00,
2013-03-03 02:46:00,54.7,32.0,29.95,West,276,0.0,-999.0,43,-99.99,,,0.00,weatherlink.com 1.10,2013-03-03 10:46:00,
2013-03-03 03:01:00,55.9,35.0,29.96,NNE,15,0.0,-999.0,45,-99.99,,,0.00,weatherlink.com 1.10,2013-03-03 11:01:00,
2013-03-03 03:16:00,55.8,36.0,29.96,NW,326,2.0,-999.0,47,-99.99,,,0.00,weatherlink.com 1.10,2013-03-03 11:16:00,
2013-03-03 03:31:00,56.2,35.0,29.96,NNW,327,0.0,-999.0,45,-99.99,,,0.00,weatherlink.com 1.10,2013-03-03 11:31:00,
2013-03-03 03:46:00,57.5,33.0,29.93,NNW,331,0.0,-999.0,40,-99.99,,,0.00,weatherlink.com 1.10,2013-03-03 11:46:00,
2013-03-03 04:01:00,58.9,33.0,29.90,NNE,16,0.0,-999.0,38,-99.99,,,0.00,weatherlink.com 1.10,2013-03-03 12:01:00,
2013-03-03 04:16:00,58.6,34.0,29.90,ESE,103,0.0,-999.0,39,-99.99,,,0.00,weatherlink.com 1.10,2013-03-03 12:16:00,
2013-03-03 04:31:00,58.1,35.0,29.91,SE,142,0.0,-999.0,42,-99.99,,,0.00,weatherlink.com 1.10,2013-03-03 12:31:00,
2013-03-03 04:46:00,56.6,35.0,29.91,SE,142,0.0,-999.0,45,-99.99,,,0.00,weatherlink.com 1.10,2013-03-03 12:46:00,
2013-03-03 05:01:00,55.7,36.0,29.91,SE,143,0.0,-999.0,48,-99.99,,,0.00,weatherlink.com 1.10,2013-03-03 13:01:00,
2013-03-03 05:16:00,55.2,37.0,29.91,SE,142,0.0,-999.0,50,-99.99,,,0.00,weatherlink.com 1.10,2013-03-03 13:16:00,
2013-03-03 05:31:00,54.4,37.0,29.91,SSE,160,0.0,-999.0,52,-99.99,,,0.00,weatherlink.com 1.10,2013-03-03 13:31:00,
2013-03-03 05:46:00,53.9,37.0,29.93,SSE,160,0.0,-999.0,53,-99.99,,,0.00,weatherlink.com 1.10,2013-03-03 13:46:00,
2013-03-03 06:01:00,53.7,37.0,29.94,SSE,160,1.0,-999.0,53,-99.99,,,0.00,weatherlink.com 1.10,2013-03-03 14:01:00,
2013-03-03 06:16:00,53.8,37.0,29.95,SSE,163,0.0,-999.0,53,-99.99,,,0.00,weatherlink.com 1.10,2013-03-03 14:16:00,
2013-03-03 06:31:00,53.9,36.0,29.96,WNW,286,0.0,-999.0,52,-99.99,,,0.00,weatherlink.com 1.10,2013-03-03 14:31:00,
2013-03-03 06:45:00,54.1,37.0,29.96,WNW,286,0.0,-999.0,52,-99.99,,,0.00,weatherlink.com 1.10,2013-03-03 14:45:00,
2013-03-03 07:01:00,54.0,37.0,29.95,WNW,286,0.0,-999.0,53,-99.99,,,0.00,weatherlink.com 1.10,2013-03-03 15:01:00,
2013-03-03 07:15:00,54.4,37.0,29.95,WNW,286,0.0,-999.0,53,-99.99,,,0.00,weatherlink.com 1.10,2013-03-03 15:15:00,
2013-03-03 07:31:00,56.4,38.0,29.95,WNW,286,0.0,-999.0,50,-99.99,,,0.00,weatherlink.com 1.10,2013-03-03 15:31:00,
2013-03-03 07:45:00,57.7,38.0,29.95,WNW,286,0.0,-999.0,48,-99.99,,,0.00,weatherlink.com 1.10,2013-03-03 15:45:00,
2013-03-03 08:01:00,59.1,38.0,29.95,WSW,252,0.0,-999.0,45,-99.99,,,0.00,weatherlink.com 1.10,2013-03-03 16:01:00,
2013-03-03 08:15:00,60.4,38.0,29.95,SE,146,0.0,-999.0,44,-99.99,,,0.00,weatherlink.com 1.10,2013-03-03 16:15:00,
2013-03-03 08:31:00,61.2,38.0,29.95,SSE,150,0.0,-999.0,42,-99.99,,,0.00,weatherlink.com 1.10,2013-03-03 16:31:00,
2013-03-03 08:46:00,62.2,37.0,29.94,East,82,0.0,-999.0,39,-99.99,,,0.00,weatherlink.com 1.10,2013-03-03 16:46:00,
2013-03-03 09:01:00,63.5,35.0,29.94,ESE,102,1.0,-999.0,35,-99.99,,,0.00,weatherlink.com 1.10,2013-03-03 17:01:00,
2013-03-03 09:16:00,64.0,36.0,29.94,ESE,116,0.0,-999.0,35,-99.99,,,0.00,weatherlink.com 1.10,2013-03-03 17:16:00,
2013-03-03 09:30:00,65.2,35.0,29.95,ESE,117,0.0,-999.0,33,-99.99,,,0.00,weatherlink.com 1.10,2013-03-03 17:30:00,
2013-03-03 09:46:00,65.4,38.0,29.96,West,272,0.0,-999.0,36,-99.99,,,0.00,weatherlink.com 1.10,2013-03-03 17:46:00,
2013-03-03 10:01:00,66.4,39.0,29.96,WNW,294,0.0,-999.0,36,-99.99,,,0.00,weatherlink.com 1.10,2013-03-03 18:01:00,
2013-03-03 10:16:00,66.2,39.0,29.96,SW,225,0.0,-999.0,37,-99.99,,,0.00,weatherlink.com 1.10,2013-03-03 18:16:00,
2013-03-03 10:31:00,66.3,40.0,29.95,WSW,240,0.0,-999.0,38,-99.99,,,0.00,weatherlink.com 1.10,2013-03-03 18:31:00,
2013-03-03 10:46:00,66.1,38.0,29.95,South,183,0.0,-999.0,35,-99.99,,,0.00,weatherlink.com 1.10,2013-03-03 18:46:00,
2013-03-03 11:01:00,65.6,38.0,29.95,SSE,165,0.0,-999.0,36,-99.99,,,0.00,weatherlink.com 1.10,2013-03-03 19:01:00,
2013-03-03 11:16:00,66.7,38.0,29.94,SW,234,1.0,-999.0,35,-99.99,,,0.00,weatherlink.com 1.10,2013-03-03 19:16:00,
2013-03-03 11:31:00,66.9,38.0,29.94,West,267,3.0,-999.0,34,-99.99,,,0.00,weatherlink.com 1.10,2013-03-03 19:31:00,
2013-03-03 11:46:00,67.2,39.0,29.93,West,277,0.0,-999.0,36,-99.99,,,0.00,weatherlink.com 1.10,2013-03-03 19:46:00,
2013-03-03 12:01:00,67.2,41.0,29.93,WSW,244,2.0,-999.0,38,-99.99,,,0.00,weatherlink.com 1.10,2013-03-03 20:01:00,
2013-03-03 12:16:00,67.5,42.0,29.92,WSW,244,0.0,-999.0,40,-99.99,,,0.00,weatherlink.com 1.10,2013-03-03 20:16:00,
2013-03-03 12:31:00,68.6,43.0,29.91,West,259,0.0,-999.0,40,-99.99,,,0.00,weatherlink.com 1.10,2013-03-03 20:31:00,
2013-03-03 12:46:00,69.1,45.0,29.90,West,269,2.0,-999.0,42,-99.99,,,0.00,weatherlink.com 1.10,2013-03-03 20:46:00,
2013-03-03 13:01:00,69.2,44.0,29.90,SSW,209,0.0,-999.0,41,-99.99,,,0.00,weatherlink.com 1.10,2013-03-03 21:01:00,
2013-03-03 13:16:00,69.5,42.0,29.89,SSE,167,3.0,-999.0,37,-99.99,,,0.00,weatherlink.com 1.10,2013-03-03 21:16:00,
2013-03-03 13:31:00,69.6,42.0,29.88,West,269,2.0,-999.0,37,-99.99,,,0.00,weatherlink.com 1.10,2013-03-03 21:31:00,
2013-03-03 13:46:00,70.1,42.0,29.88,SSW,199,3.0,-999.0,36,-99.99,,,0.00,weatherlink.com 1.10,2013-03-03 21:46:00,
2013-03-03 14:02:00,71.1,42.0,29.87,West,263,0.0,-999.0,35,-99.99,,,0.00,weatherlink.com 1.10,2013-03-03 22:02:00,
2013-03-03 14:16:00,71.7,43.0,29.87,WNW,284,3.0,-999.0,35,-99.99,,,0.00,weatherlink.com 1.10,2013-03-03 22:16:00,
2013-03-03 14:32:00,71.9,40.0,29.87,West,263,7.0,-999.0,31,-99.99,,,0.00,weatherlink.com 1.10,2013-03-03 22:32:00,
2013-03-03 14:46:00,72.2,38.0,29.86,WSW,242,0.0,-999.0,29,-99.99,,,0.00,weatherlink.com 1.10,2013-03-03 22:46:00,
2013-03-03 15:01:00,72.0,37.0,29.86,SSW,196,0.0,-999.0,28,-99.99,,,0.00,weatherlink.com 1.10,2013-03-03 23:01:00,
2013-03-03 15:17:00,71.4,37.0,29.86,WSW,242,0.0,-999.0,29,-99.99,,,0.00,weatherlink.com 1.10,2013-03-03 23:17:00,
2013-03-03 15:32:00,70.4,39.0,29.86,SSE,168,1.0,-999.0,32,-99.99,,,0.00,weatherlink.com 1.10,2013-03-03 23:32:00,
2013-03-03 15:47:00,70.7,37.0,29.85,West,267,0.0,-999.0,29,-99.99,,,0.00,weatherlink.com 1.10,2013-03-03 23:47:00,
2013-03-03 16:01:00,69.8,37.0,29.85,SW,229,2.0,-999.0,30,-99.99,,,0.00,weatherlink.com 1.10,2013-03-04 00:01:00,
2013-03-03 16:17:00,68.6,37.0,29.85,South,176,0.0,-999.0,32,-99.99,,,0.00,weatherlink.com 1.10,2013-03-04 00:17:00,
2013-03-03 16:31:00,67.8,36.0,29.85,WSW,238,0.0,-999.0,31,-99.99,,,0.00,weatherlink.com 1.10,2013-03-04 00:31:00,
2013-03-03 16:47:00,67.2,38.0,29.85,West,277,0.0,-999.0,34,-99.99,,,0.00,weatherlink.com 1.10,2013-03-04 00:47:00,
2013-03-03 17:02:00,66.1,40.0,29.85,SW,229,2.0,-999.0,39,-99.99,,,0.00,weatherlink.com 1.10,2013-03-04 01:02:00,
2013-03-03 17:17:00,64.7,40.0,29.86,SW,233,0.0,-999.0,40,-99.99,,,0.00,weatherlink.com 1.10,2013-03-04 01:17:00,
2013-03-03 17:32:00,63.4,43.0,29.86,SE,129,0.0,-999.0,47,-99.99,,,0.00,weatherlink.com 1.10,2013-03-04 01:32:00,
2013-03-03 17:46:00,62.7,44.0,29.86,South,175,0.0,-999.0,50,-99.99,,,0.00,weatherlink.com 1.10,2013-03-04 01:46:00,
2013-03-03 18:01:00,61.7,43.0,29.86,SW,233,3.0,-999.0,50,-99.99,,,0.00,weatherlink.com 1.10,2013-03-04 02:01:00,
2013-03-03 18:17:00,60.6,45.0,29.87,WSW,242,1.0,-999.0,56,-99.99,,,0.00,weatherlink.com 1.10,2013-03-04 02:17:00,
2013-03-03 18:31:00,59.6,46.0,29.87,SW,234,1.0,-999.0,61,-99.99,,,0.00,weatherlink.com 1.10,2013-03-04 02:31:00,
2013-03-03 18:47:00,58.8,47.0,29.87,WSW,237,0.0,-999.0,65,-99.99,,,0.00,weatherlink.com 1.10,2013-03-04 02:47:00,
2013-03-03 19:02:00,58.2,47.0,29.88,WSW,244,0.0,-999.0,66,-99.99,,,0.00,weatherlink.com 1.10,2013-03-04 03:02:00,
2013-03-03 19:17:00,57.5,47.0,29.88,WSW,244,0.0,-999.0,67,-99.99,,,0.00,weatherlink.com 1.10,2013-03-04 03:17:00,
2013-03-03 19:32:00,57.0,47.0,29.88,WSW,244,2.0,-999.0,69,-99.99,,,0.00,weatherlink.com 1.10,2013-03-04 03:32:00,
2013-03-03 19:47:00,56.5,47.0,29.89,WSW,247,0.0,-999.0,70,-99.99,,,0.00,weatherlink.com 1.10,2013-03-04 03:47:00,
2013-03-03 20:02:00,56.0,47.0,29.89,West,263,2.0,-999.0,71,-99.99,,,0.00,weatherlink.com 1.10,2013-03-04 04:02:00,
2013-03-03 20:16:00,55.5,47.0,29.89,West,261,1.0,-999.0,72,-99.99,,,0.00,weatherlink.com 1.10,2013-03-04 04:16:00,
2013-03-03 20:32:00,55.0,46.0,29.89,West,262,0.0,-999.0,73,-99.99,,,0.00,weatherlink.com 1.10,2013-03-04 04:32:00,
2013-03-03 20:46:00,54.8,46.0,29.89,West,262,1.0,-999.0,73,-99.99,,,0.00,weatherlink.com 1.10,2013-03-04 04:46:00,
2013-03-03 21:01:00,54.5,46.0,29.89,West,261,0.0,-999.0,73,-99.99,,,0.00,weatherlink.com 1.10,2013-03-04 05:01:00,
2013-03-03 21:17:00,54.3,47.0,29.89,West,262,0.0,-999.0,75,-99.99,,,0.00,weatherlink.com 1.10,2013-03-04 05:17:00,
2013-03-03 21:31:00,54.0,46.0,29.89,West,262,0.0,-999.0,75,-99.99,,,0.00,weatherlink.com 1.10,2013-03-04 05:31:00,
2013-03-03 21:46:00,53.7,47.0,29.89,West,261,0.0,-999.0,77,-99.99,,,0.00,weatherlink.com 1.10,2013-03-04 05:46:00,
2013-03-03 22:02:00,53.3,47.0,29.89,West,262,0.0,-999.0,78,-99.99,,,0.00,weatherlink.com 1.10,2013-03-04 06:02:00,
2013-03-03 22:16:00,53.0,46.0,29.89,West,262,0.0,-999.0,78,-99.99,,,0.00,weatherlink.com 1.10,2013-03-04 06:16:00,
2013-03-03 22:31:00,52.7,47.0,29.89,West,262,0.0,-999.0,80,-99.99,,,0.00,weatherlink.com 1.10,2013-03-04 06:31:00,
2013-03-03 22:47:00,52.5,47.0,29.89,West,262,0.0,-999.0,82,-99.99,,,0.00,weatherlink.com 1.10,2013-03-04 06:47:00,
2013-03-03 23:01:00,52.4,48.0,29.89,West,261,3.0,-999.0,86,-99.99,,,0.00,weatherlink.com 1.10,2013-03-04 07:01:00,
2013-03-03 23:17:00,52.5,49.0,29.90,SSE,167,1.0,-999.0,87,-99.99,,,0.00,weatherlink.com 1.10,2013-03-04 07:17:00,
2013-03-03 23:32:00,52.5,49.0,29.90,South,171,2.0,-999.0,88,-99.99,,,0.00,weatherlink.com 1.10,2013-03-04 07:32:00,
2013-03-03 23:46:00,52.6,49.0,29.90,SW,227,0.0,-999.0,88,-99.99,,,0.00,weatherlink.com 1.10,2013-03-04 07:46:00,